Wind_Speed
25 25 25 26 26 26 26 26 26 26 25 24 22 21 21 22 23 24 25 26 27 28 29 30 30 30 29 27 26 26 26 25 27 30 29 28 27 28 29 29 28 28
25 26 26 27 27 27 27 27 27 26 25 24 23 22 22 23 24 24 25 26 27 28 29 30 30 29 28 27 26 26 26 26 26 29 29 28 27 27 28 29 28 28
26 26 27 28 28 28 28 27 26 26 25 24 23 23 23 24 24 25 25 26 27 28 30 30 30 29 27 26 25 26 26 26 27 28 30 29 27 25 26 27 27 28
27 27 28 29 29 30 29 28 26 25 24 24 23 23 24 25 25 25 26 26 27 28 29 30 29 28 27 26 25 25 26 26 27 28 29 29 28 25 24 26 27 28
28 28 29 30 30 31 30 29 27 26 24 24 23 24 25 25 26 26 26 26 27 28 29 29 28 27 26 26 26 25 25 25 27 28 28 29 29 27 25 25 27 28
28 29 30 30 31 31 31 30 28 27 25 24 23 24 25 25 25 26 26 26 27 28 28 28 28 27 26 24 24 24 24 25 25 26 27 28 28 28 26 25 25 28
29 30 30 31 31 31 31 30 29 27 25 24 24 24 25 25 25 25 26 26 27 27 28 28 27 27 27 24 22 22 24 25 25 25 26 28 28 28 28 26 25 26
30 30 31 31 31 32 32 31 29 27 26 24 24 24 24 25 25 25 25 25 26 26 28 28 28 27 27 26 23 21 22 24 25 25 26 27 28 28 28 28 26 25
31 31 32 32 32 32 32 31 30 28 26 26 25 25 25 25 25 25 24 24 24 25 26 28 28 28 28 27 25 23 22 23 24 25 25 26 27 28 28 28 27 26
32 33 33 33 32 32 32 31 29 28 27 27 27 27 27 27 26 26 25 24 24 24 25 26 27 28 29 28 27 25 23 23 23 24 25 25 26 27 27 27 27 27
34 34 34 33 33 33 32 31 30 29 28 28 28 28 28 28 28 27 26 25 24 24 24 24 25 26 28 29 29 27 25 24 23 23 24 25 25 26 27 27 26 26
35 35 35 34 34 34 33 32 31 30 30 30 30 30 30 29 29 28 27 27 26 25 24 24 24 25 26 27 28 29 27 25 24 23 23 23 24 25 27 27 27 26
36 36 36 36 35 35 34 33 32 32 32 32 32 32 32 32 31 30 29 28 27 26 26 25 24 24 25 26 27 28 28 27 26 24 24 23 23 23 25 26 27 27
37 37 36 36 36 35 35 34 34 34 34 35 35 35 35 34 33 32 31 29 28 28 28 27 27 26 25 26 27 27 27 28 27 26 24 24 23 22 23 25 25 26
37 37 37 37 37 36 36 36 36 36 36 36 37 37 36 36 35 34 33 32 31 30 30 29 29 28 27 26 27 27 27 27 27 27 26 24 24 22 21 22 24 25
38 38 38 38 38 37 37 37 37 37 37 38 38 38 38 37 37 36 34 34 34 33 32 31 30 30 29 28 27 27 27 28 27 28 27 26 25 24 22 22 23 24
38 38 38 38 38 38 38 38 38 38 38 39 39 39 39 39 38 37 36 36 35 35 34 33 33 32 32 31 29 27 27 28 28 28 28 28 27 26 25 23 23 24
38 38 38 38 38 38 38 38 38 39 39 39 40 40 40 39 39 39 39 38 37 37 36 36 35 34 34 34 33 31 29 29 29 29 29 29 29 28 27 26 26 26
37 38 38 38 37 37 38 38 39 39 40 40 41 41 41 41 41 41 41 41 40 40 39 39 39 38 37 36 36 35 32 30 30 31 30 30 30 29 29 29 28 27
36 37 37 38 38 38 39 39 40 40 41 41 41 42 42 42 43 43 43 43 43 43 42 42 42 41 40 39 38 37 35 32 31 31 32 32 32 31 31 31 30 29
37 38 38 39 39 39 40 41 41 42 42 43 43 43 43 44 44 44 44 45 45 45 45 44 44 44 43 42 41 39 37 35 33 32 32 33 33 33 32 32 31 31
39 39 39 40 40 41 41 42 42 43 43 44 44 44 45 45 46 46 47 47 47 48 48 47 47 46 45 44 43 42 40 38 36 34 33 33 34 35 34 33 33 32
40 40 41 41 41 42 42 42 43 43 44 44 45 46 46 47 48 48 49 50 50 50 51 51 50 49 48 47 46 45 43 41 40 38 36 34 34 35 36 35 34 34
40 40 40 40 40 40 41 41 41 42 42 43 44 45 46 46 47 48 49 49 50 50 51 51 51 51 50 50 49 48 47 45 43 42 41 38 36 36 36 37 36 35
38 38 38 38 39 39 39 40 40 41 42 43 44 45 46 47 48 49 49 50 50 51 51 52 52 52 51 51 50 50 49 48 46 44 44 43 41 38 37 38 37 37
37 38 38 39 39 40 40 41 42 43 44 45 46 47 49 50 51 52 53 53 54 54 55 55 55 55 54 54 53 52 51 50 48 46 45 45 44 42 40 40 39 38
Wind_Direction
285 287 290 292 295 297 300 302 304 306 307 309 311 310 311 312 312 313 316 318 318 315 311 307 305 304 300 297 291 283 280 279 272 268 269 268 261 254 252 253 252 251
285 287 289 292 294 297 299 302 304 305 307 308 309 308 309 309 310 311 314 319 321 319 316 312 308 306 301 294 289 283 280 279 274 268 269 272 268 256 250 251 250 248
285 287 290 293 295 297 299 301 303 305 306 307 307 307 308 309 310 311 314 318 322 324 323 319 314 308 302 296 290 284 280 279 276 270 268 270 271 262 252 250 250 247
288 289 292 294 296 297 298 300 303 304 305 305 304 305 307 310 312 313 315 318 321 326 328 326 320 312 304 297 291 285 281 280 277 272 270 269 271 269 261 254 251 249
288 290 292 294 295 296 297 299 302 303 304 303 302 304 307 311 314 314 316 317 320 324 329 331 327 319 310 299 291 285 281 280 277 273 270 269 269 270 267 261 254 250
288 289 291 292 293 294 296 298 301 302 303 301 301 303 307 311 314 316 317 318 320 323 328 332 332 329 321 308 295 285 280 279 277 274 271 269 269 269 269 267 260 253
286 287 289 291 292 294 295 297 299 301 301 299 300 302 306 309 313 316 317 318 321 322 324 328 332 334 332 324 307 289 281 279 277 275 273 272 271 270 270 271 267 259
286 287 289 291 292 293 294 296 298 299 298 298 298 301 304 307 310 313 315 317 320 322 322 325 329 333 335 333 323 305 289 283 281 279 277 274 272 271 270 270 269 264
287 288 290 291 291 291 293 294 296 297 298 298 299 301 302 304 306 308 310 313 316 319 320 322 326 328 330 332 330 322 305 291 285 283 282 278 274 272 272 270 267 266
288 289 290 290 290 290 291 293 295 296 297 298 299 300 302 303 304 305 306 308 311 314 316 318 322 324 325 326 327 327 321 307 294 287 285 284 280 275 273 270 269 267
288 288 289 289 289 289 290 291 293 295 295 296 297 298 300 302 302 302 303 303 305 308 310 313 317 319 320 321 321 322 323 319 309 297 288 285 284 281 274 270 270 270
288 288 288 288 287 287 288 290 291 293 293 294 295 297 298 299 300 300 299 299 300 302 304 306 310 313 316 317 317 316 316 316 315 309 299 291 286 283 278 272 270 270
288 288 288 288 287 287 287 289 290 291 292 294 295 296 298 298 298 297 296 295 295 296 297 299 302 306 310 312 312 311 310 310 310 310 308 304 296 287 282 277 271 267
288 288 288 288 287 287 287 288 290 291 293 294 295 296 297 297 297 297 295 293 292 291 292 293 295 298 302 306 308 307 306 305 304 304 304 304 303 296 287 281 274 267
289 288 288 288 287 287 287 288 290 292 293 294 295 295 296 296 296 296 295 294 292 291 290 290 291 293 295 298 301 303 303 301 300 299 299 298 298 298 293 284 277 269
288 288 288 288 287 287 287 288 290 291 292 293 294 294 295 295 295 295 295 294 293 293 293 292 292 292 293 293 294 296 298 298 297 295 294 294 293 293 291 287 281 274
288 288 287 287 287 287 287 288 289 290 291 292 293 294 294 294 295 295 294 294 294 294 294 294 294 294 293 293 292 291 292 293 293 292 290 289 288 287 286 285 283 281
289 288 287 287 287 287 288 289 290 290 291 292 292 293 293 294 294 294 294 293 293 293 293 294 294 294 294 293 293 291 289 288 288 288 288 287 285 283 282 281 281 282
289 289 289 289 289 290 291 291 291 291 292 292 292 292 293 293 293 293 293 293 293 293 293 293 293 293 293 293 293 292 290 287 285 285 285 284 283 282 280 278 278 280
290 290 290 291 291 291 292 292 292 292 292 292 292 292 292 292 291 291 291 291 291 291 291 292 293 294 294 293 293 292 291 288 285 283 282 281 281 280 279 277 277 277
291 291 291 292 292 292 292 292 292 292 291 291 291 290 290 290 290 290 290 290 290 290 290 291 292 292 293 292 292 291 290 287 285 282 280 279 278 278 277 277 275 274
293 293 292 292 292 292 292 292 292 292 291 291 290 290 289 289 289 289 289 289 289 289 289 289 289 290 290 290 289 288 287 285 284 281 278 277 276 276 275 275 274 273
294 294 294 294 294 293 293 293 293 293 292 292 291 290 290 289 289 289 288 288 288 288 287 287 287 287 286 286 286 285 284 283 282 280 278 275 274 274 274 273 272 271
296 296 295 296 296 296 296 296 295 295 295 294 293 293 292 291 290 290 289 289 288 288 287 287 286 285 285 284 283 282 282 281 280 279 277 275 272 271 272 273 272 270
298 298 298 298 298 299 299 299 299 299 298 297 297 296 294 293 292 291 290 289 288 287 287 286 285 284 283 282 281 280 280 279 278 276 275 274 272 270 269 270 271 270
299 299 300 300 301 301 302 301 301 301 300 300 299 298 297 296 294 293 291 290 289 288 286 285 284 283 282 281 280 279 278 277 276 274 273 272 271 269 267 266 267 268
Height
5796 5796 5795 5795 5794 5793 5791 5790 5789 5788 5787 5786 5785 5784 5783 5782 5780 5778 5776 5774 5772 5770 5768 5766 5764 5762 5761 5760 5759 5758 5757 5756 5755 5754 5754 5754 5754 5754 5754 5754 5754 5755
5794 5793 5792 5791 5791 5790 5789 5788 5787 5786 5785 5784 5783 5782 5780 5779 5778 5776 5774 5772 5769 5767 5765 5763 5761 5759 5757 5756 5755 5754 5753 5753 5752 5751 5751 5751 5750 5750 5750 5750 5750 5751
5791 5790 5789 5788 5787 5787 5786 5785 5784 5783 5782 5781 5780 5779 5777 5776 5775 5773 5771 5769 5766 5764 5762 5759 5757 5756 5754 5753 5752 5751 5750 5750 5749 5748 5747 5747 5747 5746 5746 5746 5747 5747
5788 5787 5786 5785 5784 5784 5783 5783 5782 5781 5780 5779 5777 5776 5774 5773 5771 5770 5768 5766 5764 5762 5759 5757 5755 5753 5751 5750 5749 5748 5747 5746 5746 5745 5744 5744 5744 5743 5743 5743 5744 5744
5785 5784 5783 5782 5782 5781 5780 5780 5779 5778 5777 5776 5774 5773 5771 5770 5768 5767 5765 5763 5761 5759 5757 5755 5752 5750 5748 5747 5746 5745 5744 5743 5742 5742 5742 5741 5741 5740 5740 5740 5740 5740
5782 5782 5781 5780 5779 5778 5777 5777 5776 5775 5774 5773 5772 5770 5769 5767 5765 5764 5762 5760 5758 5757 5755 5753 5750 5748 5746 5744 5743 5742 5741 5741 5740 5739 5739 5738 5738 5738 5737 5737 5737 5737
5779 5779 5778 5777 5776 5775 5774 5774 5773 5772 5771 5770 5769 5767 5766 5764 5763 5761 5759 5757 5756 5754 5752 5750 5748 5746 5744 5742 5741 5740 5739 5738 5737 5737 5736 5736 5735 5735 5735 5734 5734 5734
5776 5775 5775 5774 5773 5772 5771 5770 5770 5769 5768 5767 5766 5765 5763 5762 5760 5758 5757 5755 5753 5751 5749 5748 5746 5744 5743 5741 5739 5738 5737 5736 5735 5734 5734 5733 5733 5732 5732 5731 5731 5731
5773 5772 5772 5771 5770 5769 5768 5767 5766 5766 5765 5764 5763 5762 5760 5759 5758 5756 5754 5753 5751 5749 5747 5745 5744 5742 5741 5739 5738 5736 5734 5733 5732 5731 5731 5731 5730 5730 5729 5728 5728 5728
5769 5769 5768 5767 5767 5766 5765 5764 5763 5762 5762 5761 5759 5758 5757 5756 5755 5753 5752 5751 5749 5747 5745 5744 5742 5740 5738 5737 5736 5734 5732 5731 5729 5729 5728 5727 5727 5726 5726 5725 5725 5725
5766 5765 5765 5764 5763 5763 5762 5761 5760 5759 5758 5757 5756 5755 5754 5752 5751 5750 5749 5748 5746 5745 5743 5742 5740 5738 5736 5735 5733 5732 5731 5728 5727 5726 5725 5724 5723 5722 5722 5722 5722 5722
5763 5762 5761 5761 5760 5759 5758 5757 5757 5756 5755 5754 5753 5752 5751 5749 5748 5747 5745 5744 5743 5742 5741 5739 5738 5736 5735 5733 5731 5729 5728 5727 5725 5723 5722 5721 5720 5719 5719 5719 5719 5719
5760 5759 5758 5757 5756 5755 5754 5754 5753 5752 5751 5750 5749 5748 5747 5745 5744 5743 5742 5741 5740 5739 5738 5736 5735 5734 5732 5731 5729 5727 5725 5724 5723 5721 5719 5718 5717 5717 5716 5715 5715 5715
5756 5755 5754 5753 5752 5751 5750 5749 5749 5748 5747 5746 5745 5744 5742 5741 5740 5739 5738 5737 5736 5735 5734 5733 5732 5731 5730 5728 5726 5725 5723 5721 5720 5719 5718 5716 5715 5714 5713 5711 5711 5711
5753 5751 5750 5749 5748 5747 5746 5745 5744 5743 5742 5741 5740 5739 5738 5737 5736 5734 5733 5732 5731 5730 5730 5729 5728 5727 5726 5725 5724 5722 5720 5719 5717 5716 5715 5714 5712 5711 5710 5708 5707 5707
5748 5747 5746 5745 5744 5743 5742 5741 5740 5739 5738 5737 5736 5735 5733 5732 5731 5730 5729 5728 5726 5725 5724 5724 5723 5722 5722 5721 5720 5719 5717 5715 5714 5713 5712 5711 5710 5709 5708 5706 5704 5703
5744 5743 5742 5741 5740 5739 5738 5737 5736 5735 5734 5732 5731 5730 5729 5728 5726 5725 5724 5723 5722 5721 5720 5719 5718 5717 5717 5716 5716 5715 5714 5712 5710 5709 5708 5707 5707 5706 5705 5703 5701 5700
5740 5739 5738 5737 5736 5735 5733 5732 5731 5730 5729 5728 5727 5725 5724 5723 5722 5720 5719 5718 5717 5716 5715 5714 5713 5712 5711 5710 5710 5710 5709 5708 5706 5705 5704 5703 5702 5702 5701 5700 5699 5698
5736 5735 5734 5733 5732 5730 5729 5727 5726 5725 5724 5723 5722 5720 5719 5718 5717 5715 5714 5713 5712 5710 5709 5708 5708 5707 5706 5705 5704 5704 5704 5703 5702 5701 5700 5699 5698 5697 5696 5695 5695 5695
5733 5731 5730 5729 5727 5726 5724 5723 5722 5720 5719 5718 5717 5715 5714 5713 5711 5710 5709 5707 5706 5705 5704 5703 5702 5701 5700 5699 5698 5698 5697 5697 5697 5696 5695 5694 5693 5692 5692 5691 5691 5691
5729 5727 5726 5725 5723 5722 5720 5718 5717 5715 5714 5713 5711 5710 5709 5707 5706 5704 5703 5702 5700 5699 5698 5697 5696 5695 5694 5693 5692 5692 5691 5691 5691 5691 5690 5689 5688 5687 5687 5686 5686 5686
5724 5723 5722 5720 5719 5717 5715 5714 5712 5710 5708 5707 5706 5704 5703 5702 5700 5699 5697 5696 5694 5693 5691 5690 5690 5689 5688 5687 5686 5685 5685 5684 5684 5684 5684 5683 5682 5682 5682 5682 5682 5681
5720 5718 5717 5715 5714 5712 5710 5709 5707 5705 5703 5702 5700 5699 5697 5696 5694 5693 5691 5690 5688 5686 5685 5684 5683 5682 5681 5680 5679 5679 5678 5678 5677 5677 5678 5678 5677 5676 5676 5677 5677 5676
5715 5714 5712 5711 5709 5707 5705 5703 5702 5700 5698 5696 5694 5693 5691 5690 5688 5687 5685 5684 5682 5680 5678 5677 5676 5675 5674 5673 5672 5672 5671 5671 5671 5670 5670 5670 5671 5671 5671 5671 5671 5671
5711 5709 5708 5706 5704 5702 5700 5698 5696 5694 5692 5691 5689 5687 5685 5684 5682 5680 5679 5677 5675 5673 5672 5670 5668 5667 5666 5665 5665 5664 5664 5663 5663 5663 5663 5662 5663 5664 5665 5664 5664 5665
5706 5705 5703 5701 5699 5697 5695 5693 5691 5689 5687 5685 5683 5681 5679 5677 5675 5673 5671 5669 5667 5666 5664 5662 5661 5659 5658 5657 5656 5656 5655 5655 5655 5655 5655 5655 5655 5656 5657 5657 5658 5658